Lawrence, MA

1:11 PM EDT on July 22, 2017 (GMT -0400)
Lawrence Municipal

Weather History for KLWM - December, 2014

Change the Weather History Date:

Sunday, December 14, 2014

  Actual Average Record
Temperature  
Mean Temperature 37 °F -  
Max Temperature 42 °F 39 °F 63 °F (1984)
Min Temperature 32 °F 23 °F 1 °F (1976)
Degree Days  
Heating Degree Days 28    
Moisture  
Dew Point 27 °F    
Average Humidity 70    
Maximum Humidity 82    
Minimum Humidity 60    
Precipitation  
Precipitation 0.00 in - - ()
Sea Level Pressure  
Sea Level Pressure 29.85 in    
Wind  
Wind Speed 6 mph (NW)    
Max Wind Speed 12 mph    
Max Gust Speed -    
Visibility 10 miles    
Events      
Averages and records for this station are not official NWS values.
T = Trace of Precipitation, MM = Missing Value Source: NWS Daily Summary

Daily Weather History Graph

Daily Weather History Graph

Search for Another Location

Airport or City:

Trip Planner

Search our weather history database for the weather conditions in past years. The results will help you decide how hot, cold, wet, or windy it might be!

Date:

Astronomy

Dec. 14, 2014 Rise Set
Actual Time 7:07 AM EST 4:11 PM EST
Civil Twilight 6:34 AM EST 4:43 PM EST
Nautical Twilight 5:59 AM EST 5:18 PM EST
Astronomical Twilight 5:24 AM EST 5:53 PM EST
Moon No Moon Rise 11:49 AM EST (12/14)
Length of Visible Light 10h 08m
Length of Day
9h 04m
Waning Gibbous, 48% of the Moon is Illuminated
Dec 14
Waning Gibbous
Dec 21
New
Dec 28
First Quarter
Jan 4
Full
Jan 13
Last Quarter

Hourly Weather History & Observations

Time (EST) Temp. Windchill Dew Point Humidity Pressure Visibility Wind Dir Wind Speed Gust Speed Precip Events Conditions
12:54 AM 33.1 °F 27.7 °F 25.0 °F 72% 29.80 in 10.0 mi NNW 5.8 mph - N/A   Overcast
1:54 AM 33.1 °F 27.7 °F 26.1 °F 75% 29.81 in 10.0 mi WNW 5.8 mph - N/A   Overcast
2:54 AM 33.1 °F 26.9 °F 25.0 °F 72% 29.81 in 10.0 mi WNW 6.9 mph - N/A   Overcast
3:54 AM 33.1 °F 28.7 °F 25.0 °F 72% 29.81 in 10.0 mi WNW 4.6 mph - N/A   Overcast
4:54 AM 34.0 °F 29.8 °F 24.1 °F 67% 29.82 in 10.0 mi NW 4.6 mph - N/A   Overcast
5:54 AM 34.0 °F 31.0 °F 25.0 °F 70% 29.82 in 10.0 mi WNW 3.5 mph - N/A   Overcast
6:54 AM 33.1 °F 26.9 °F 25.0 °F 72% 29.84 in 10.0 mi NW 6.9 mph - N/A   Overcast
7:54 AM 33.1 °F 30.0 °F 25.0 °F 72% 29.85 in 10.0 mi NW 3.5 mph - N/A   Mostly Cloudy
8:54 AM 34.0 °F 28.8 °F 26.1 °F 73% 29.85 in 10.0 mi NW 5.8 mph - N/A   Overcast
9:54 AM 37.0 °F 29.8 °F 27.0 °F 67% 29.86 in 10.0 mi NW 10.4 mph - N/A   Scattered Clouds
10:54 AM 37.9 °F 31.5 °F 28.0 °F 68% 29.85 in 10.0 mi WNW 9.2 mph - N/A   Overcast
11:54 AM 39.9 °F 33.4 °F 28.9 °F 65% 29.83 in 10.0 mi NNW 10.4 mph - N/A   Mostly Cloudy
12:54 PM 42.1 °F 37.1 °F 28.9 °F 60% 29.82 in 10.0 mi NW 8.1 mph - N/A   Scattered Clouds
1:54 PM 42.1 °F 35.7 °F 28.9 °F 60% 29.83 in 10.0 mi WNW 11.5 mph - N/A   Clear
2:54 PM 41.0 °F 34.7 °F 28.0 °F 60% 29.83 in 10.0 mi NW 10.4 mph - N/A   Clear
3:54 PM 39.9 °F 33.4 °F 28.0 °F 63% 29.85 in 10.0 mi NW 10.4 mph - N/A   Clear
4:54 PM 37.9 °F 34.4 °F 27.0 °F 65% 29.86 in 10.0 mi NW 4.6 mph - N/A   Clear
5:54 PM 36.0 °F 32.1 °F 27.0 °F 70% 29.87 in 10.0 mi WNW 4.6 mph - N/A   Clear
6:54 PM 35.1 °F 30.1 °F 27.0 °F 72% 29.89 in 10.0 mi Variable 5.8 mph - N/A   Clear
7:54 PM 34.0 °F 28.0 °F 27.0 °F 75% 29.91 in 10.0 mi WNW 6.9 mph - N/A   Clear
8:54 PM 33.1 °F 28.7 °F 27.0 °F 78% 29.91 in 10.0 mi NW 4.6 mph - N/A   Clear
9:54 PM 33.1 °F 30.0 °F 27.0 °F 78% 29.93 in 10.0 mi WNW 3.5 mph - N/A   Clear
10:54 PM 32.0 °F 28.7 °F 27.0 °F 82% 29.93 in 10.0 mi NW 3.5 mph - N/A   Clear
11:54 PM 32.0 °F 27.5 °F 27.0 °F 82% 29.93 in 10.0 mi WNW 4.6 mph - N/A   Clear